OBJECT A, 60203

Orbit data source: Space-Track

You're viewing an Uncataloged Satellite

Recently launched and/or uncataloged satellites may have evolving metadata. Metadata may include but not limited to: Owner, Maufacturer, Bus, Motor, and Mission.

OBJECT A, 60203 is a satellite owned by UWash (US) in SSO that was launched on Thu, 04 Jul 2024 UTC via an FIREFLY ALPHA launch vehicle from the Air Force Western Test Range (AFWTR). Unknown objects in Earth's orbit typically refer to objects detected orbiting the Earth but have not yet been identified or cataloged. These objects could be anything from previously untracked satellites, spent rocket stages, debris from satellite collisions, or even natural meteoroids temporarily captured by Earth's gravity.

Loading next visibility...
Identifier
60203, 2024-125A
Orbit
SSO
Country
Flag of USUS
Related business
None
Manufacturer
UWash
Mission
Operational spacecraft
Bus & Motor
CUBESAT 2U, Unknown motor
Mass
2 kg wet, 2 kg dry
Launch date (UTC)
2024-07-04 (1 year ago)
Launch vehicle
FIREFLY ALPHA
Launch site
Air Force Western Test Range (AFWTR)
Object type
Unknown
Shape & HBR
Unknown
Radar Cross Section
Small (<0.1 m²)

Expand to show TLE details & history
Last TLE update: 17 hours ago

TLE from 17 hours ago
0 OBJECT A
1 60203U 24125A   25260.53166249  .00022219  00000-0  54365-3 0  9998
2 60203  97.2666 111.4920 0018879 131.0505 229.2376 15.40609038 67331
Epoch: 2025-09-17T12:45Z
TLE epoch observation values (Epoch: 2025-09-17T12:45:35.639Z)
Latitude
-0.00009°
Longitude
-76.61275°
Altitude
455.859 km
Speed
7.634 km/s
True Right ascension
07h 25m 58s
True Declination
0° 00' 00"
Sunlit
Object was in daylight at epoch
Visualization orbit readout
Latitude
Unknown
Longitude
Unknown
Altitude
Unknown
Speed
Unknown
Apparent Right ascension
Unknown
Apparent Declination
Unknown
Sunlit
N/A
Visualization observer readout
Local Sidereal Time
22:29:00
Azimuth
Unknown
Elevation
Unknown
Doppler factor
Unknown
Orbital elements
Apogee altitude
454.117 km
Perigee altitude
428.369 km
Semi-major axis
6,819.38 km
Eccentricity
0.00189
Inclination
97.2666°
RAAN
111.492°
Arg. of periapsis
131.0505°
True anomaly
229.07399°
Mean anomaly
229.2376°
Eccentric anomaly
229.15577°
Mean motion
3.85413 °/min
Orbital period
93.41 mins
BSTAR
0.00054365
Loading maneuver chart data...
Computing Atmospheric mass density...
Loading historical data...
Loading historical data...
Loading historical data...
Loading historical data...
Loading historical data...
Loading historical data...
Loading historical data...

Documentation

Showing up to 5 results
|